User: anonymous   Login
Location: 22
(39.7117°N, 89.5929°W)
Time: 11:27:14
(UTC-05:00)
Language:

JY1SAT - Orbit

View from above orbital plane
View from above orbital plane
View from above satellite
View from above satellite

Ground track
Ground track

The orbit data is extracted from the following two-line orbital elements,

1 43803U 18099AX  24195.71466249  .00011363  00000-0  74274-3 0  9996
2 43803  97.5182 253.8015 0009594 203.8026 156.2760 15.07923715306695
Epoch (UTC): 13 July 2024 17:09:06
Eccentricity: 0.0009594
inclination: 97.5182°
perigee height: 536 km
apogee height: 549 km
right ascension of ascending node: 253.8015°
argument of perigee: 203.8026°
revolutions per day: 15.07923715
mean anomaly at epoch: 156.2760°
orbit number at epoch: 30669

The dashed part of the orbit path shows where the satellite is in the earth's shadow,  

DLR